Regional Weather Roundup
Issued by NWS

Home | Current Version | Previous Version | Text Only | Print | Product List | Glossary Off
Versions: 1 2 3 4 5 6 7 8 9 10 11 12 13 14 15 16 17 18 19 20 21 22 23 24 25 26 27 28 29 30 31 32 33 34 35 36 37 38 39 40 41 42 43 44 45 46 47 48 49 50

000
ASUS45 KABQ 211501
RWRNM
WEATHER ROUNDUP FOR NEW MEXICO
NATIONAL WEATHER SERVICE ALBUQUERQUE NM
800 AM MST FRI NOV 21 2014

NOTE: "FAIR" MEANS FEW OR NO CLOUDS BELOW 12,000 FEET AGL WITH NO
       SIGNIFICANT WEATHER OR OBSTRUCTIONS TO VISION.

      THIS PRODUCT IS RELEASED AS TWO VERSIONS.  ONE VERSION NEAR
      THE TOP OF THE HOUR CONTAINING PRELIMINARY DATA FROM ALBUQUERQUE
      AND OTHER STATIONS.  A FINAL VERSION WITH ADDITIONAL DATA IS
      ISSUED ABOUT 10 MINUTES AFTER THE HOUR.

NMZ501-503-504-510>518-211600-
NORTHWEST PLATEAU/NORTHCENTRAL MOUNTAINS

CITY           SKY/WX    TMP DP  RH WIND       PRES   REMARKS
FARMINGTON     SUNNY     29  19  66 E7        30.09R WCI  22
LOS ALAMOS     MOSUNNY   36  21  55 CALM      30.09S
SANTA FE       MOSUNNY   32  18  56 N6        30.09R WCI  26
TAOS           PTSUNNY   21  18  86 N3        30.10S
ANGEL FIRE     FAIR       4  -1  79 CALM      30.12R

$$
NMZ402-403-502-505>509-211600-
WESTCENTRAL MOUNTAINS/SOUTHWEST MOUNTAINS

CITY           SKY/WX    TMP DP  RH WIND       PRES   REMARKS
GALLUP         CLOUDY    24  13  62 CALM      30.08R
SILVER CITY    MOSUNNY   39  21  48 N5        30.07S

$$
NMZ407-409-411-412-211600-
SOUTHERN DESERTS

CITY           SKY/WX    TMP DP  RH WIND       PRES   REMARKS
LORDSBURG      FAIR      37  18  44 CALM      30.03R
DEMING         SUNNY     38  19  46 CALM      30.05R
HOLLOMAN AFB   MOSUNNY   41  16  36 CALM      30.04F
ALAMOGORDO     MOSUNNY   41  18  38 CALM      30.05S
T OR C         SUNNY     38  19  46 NW6       30.07R WCI  33

$$
NMZ519>523-211600-
CENTRAL VALLEYS/CENTRAL HIGHLANDS

CITY           SKY/WX    TMP DP  RH WIND       PRES   REMARKS
ALBUQUERQUE    PTSUNNY   32  13  45 NW5       30.08R WCI  27
DOUBLE EAGLE   MOSUNNY   34  12  40 CALM      30.09R
MORIARTY ARPT  FAIR      25  20  84 CALM      30.10R
CLINES CORNERS MOSUNNY   34  14  43 W7        30.06S WCI  28
BELEN          FAIR      32  11  41 NW5       30.08S WCI  28
SOCORRO        FAIR      38  16  40 N6        30.08R WCI  33

$$
NMZ524>526-539-540-211600-
SOUTHCENTRAL MOUNTAINS

CITY           SKY/WX    TMP DP  RH WIND       PRES   REMARKS
RUIDOSO        SUNNY     43  16  33 SW6       30.12S

$$
NMZ527>531-211600-
NORTHEAST HIGHLANDS/NORTHEAST PLAINS

CITY           SKY/WX    TMP DP  RH WIND       PRES   REMARKS
LAS VEGAS      MOSUNNY   37  22  54 N3        30.06R
RATON          SUNNY     27  22  81 NE3       30.03R
CLAYTON        SUNNY     36  24  62 SW6       30.00S WCI  31

$$
NMZ532>537-211600-
EASTCENTRAL PLAINS

CITY           SKY/WX    TMP DP  RH WIND       PRES   REMARKS
TUCUMCARI      SUNNY     33  26  75 CALM      30.04R
CANNON AFB     PTSUNNY   38  28  69 N3        30.04R
CLOVIS AIRPORT PTSUNNY   36  28  75 CALM      30.04R

$$
NMZ028-029-538-211600-
SOUTHEAST PLAINS

CITY           SKY/WX    TMP DP  RH WIND       PRES   REMARKS
ROSWELL        SUNNY     40  23  50 N5        30.06R
CARLSBAD       PTSUNNY   42  27  55 N6        30.05R
HOBBS          SUNNY     45  28  53 CALM      30.06R


$$



USA.gov is the U.S. government's official web portal to all federal, state and local government web resources and services.